EZS68CN LGMK-LSGG

Flight info

Callsign EZS68CN
Flight time 2h 29m
Altitude 36000
Route KEA1S KEA UL52 KOR DCT OLGAT DCT VIE DCT BEROK DCT GOLAS DCT TONDA/N0355F220 DCT AOSTA L615 BANKO BANKO3N
Aircraft A320/M-SDE2E3FGHIJ1RWXYZ/LB1

Departure

Time 2026-04-23 17:17
Airport Mykonos Island National Airport (LGMK)

Arrival

Time 2026-04-23 19:46
Airport Geneva International Airport (LSGG)
Time Latitude Longitude Altitude Speed Heading
2026-04-23 16:36 37.43507 25.34644 404 ft 0 kts 251°
2026-04-23 16:37 37.43507 25.34643 407 ft 0 kts 251°
2026-04-23 17:08 37.43507 25.34645 407 ft 2 kts 251°
2026-04-23 17:09 37.43517 25.34674 404 ft 4 kts 232°
2026-04-23 17:09 37.43536 25.34693 402 ft 4 kts 185°
2026-04-23 17:09 37.43547 25.34693 403 ft 0 kts 161°
2026-04-23 17:12 37.43544 25.34694 403 ft 3 kts 161°
2026-04-23 17:13 37.43505 25.34715 405 ft 9 kts 156°
2026-04-23 17:13 37.43440 25.34744 408 ft 10 kts 149°
2026-04-23 17:13 37.43406 25.34809 407 ft 11 kts 114°
2026-04-23 17:13 37.43340 25.34888 412 ft 14 kts 149°
2026-04-23 17:14 37.43260 25.34933 413 ft 12 kts 160°
2026-04-23 17:14 37.43146 25.34984 412 ft 20 kts 161°
2026-04-23 17:14 37.43025 25.35039 414 ft 17 kts 160°
2026-04-23 17:14 37.42903 25.35092 413 ft 22 kts 161°
2026-04-23 17:15 37.42782 25.35160 411 ft 13 kts 133°
2026-04-23 17:15 37.42725 25.35177 409 ft 6 kts 227°
2026-04-23 17:15 37.42729 25.35152 410 ft 3 kts 311°
2026-04-23 17:15 37.42757 25.35154 410 ft 4 kts 10°
2026-04-23 17:16 37.42777 25.35148 411 ft 0 kts 341°
2026-04-23 17:16 37.43030 25.35036 414 ft 75 kts 340°
2026-04-23 17:16 37.43716 25.34728 456 ft 128 kts 340°
2026-04-23 17:17 37.44535 25.34352 1122 ft 124 kts 342°
2026-04-23 17:17 37.45359 25.33985 1784 ft 130 kts 343°
2026-04-23 17:17 37.46260 25.33550 2122 ft 150 kts 335°
2026-04-23 17:17 37.47084 25.32618 2340 ft 177 kts 308°
2026-04-23 17:18 37.48029 25.29342 2830 ft 221 kts 304°
2026-04-23 17:18 37.48891 25.27630 3195 ft 243 kts 308°
2026-04-23 17:18 37.49879 25.25823 3814 ft 255 kts 308°
2026-04-23 17:19 37.50887 25.23953 4652 ft 260 kts 307°
2026-04-23 17:19 37.51886 25.22037 5492 ft 264 kts 305°
2026-04-23 17:19 37.52880 25.20066 6352 ft 267 kts 303°
2026-04-23 17:19 37.53856 25.18088 7137 ft 271 kts 303°
2026-04-23 17:20 37.54843 25.16062 7960 ft 273 kts 302°
2026-04-23 17:20 37.56824 25.11954 9663 ft 276 kts 301°
2026-04-23 17:21 37.58880 25.07667 10607 ft 304 kts 301°
2026-04-23 17:21 37.59994 25.05345 11126 ft 314 kts 300°
2026-04-23 17:21 37.62288 25.00550 12477 ft 323 kts 300°
2026-04-23 17:22 37.63455 24.98110 13172 ft 327 kts 300°
2026-04-23 17:22 37.65803 24.93198 14521 ft 331 kts 299°
2026-04-23 17:23 37.68187 24.88210 15844 ft 333 kts 298°
2026-04-23 17:23 37.69385 24.85703 16502 ft 334 kts 298°
2026-04-23 17:23 37.71796 24.80659 17812 ft 337 kts 298°
2026-04-23 17:24 37.73004 24.78119 18421 ft 338 kts 297°
2026-04-23 17:24 37.74214 24.75570 18965 ft 339 kts 297°
2026-04-23 17:24 37.76649 24.70434 20043 ft 342 kts 297°
2026-04-23 17:25 37.79088 24.65292 21089 ft 345 kts 296°
2026-04-23 17:25 37.80324 24.62688 21631 ft 346 kts 296°
2026-04-23 17:26 37.82813 24.57436 22634 ft 349 kts 296°
2026-04-23 17:26 37.85310 24.52140 23615 ft 352 kts 295°
2026-04-23 17:27 37.87828 24.46796 24408 ft 355 kts 295°
2026-04-23 17:27 37.89078 24.44144 24773 ft 357 kts 295°
2026-04-23 17:27 37.90350 24.41444 25156 ft 358 kts 295°
2026-04-23 17:27 37.91627 24.38728 25519 ft 360 kts 295°
2026-04-23 17:28 37.92909 24.35997 25917 ft 361 kts 295°
2026-04-23 17:28 37.94194 24.33258 26286 ft 363 kts 295°
2026-04-23 17:28 37.95485 24.30504 26635 ft 364 kts 295°
2026-04-23 17:28 37.96785 24.27737 26979 ft 366 kts 295°
2026-04-23 17:29 37.98090 24.24959 27320 ft 368 kts 294°
2026-04-23 17:29 37.99401 24.22158 27643 ft 370 kts 294°
2026-04-23 17:29 38.02033 24.16515 28307 ft 374 kts 294°
2026-04-23 17:30 38.03361 24.13667 28633 ft 376 kts 294°
2026-04-23 17:30 38.06016 24.07978 29286 ft 379 kts 294°
2026-04-23 17:30 38.07359 24.05090 29602 ft 381 kts 294°
2026-04-23 17:31 38.08706 24.02184 29894 ft 383 kts 294°
2026-04-23 17:31 38.10060 23.99261 30161 ft 385 kts 294°
2026-04-23 17:31 38.11423 23.96325 30385 ft 387 kts 294°
2026-04-23 17:31 38.12791 23.93375 30588 ft 388 kts 294°
2026-04-23 17:32 38.14163 23.90414 30786 ft 390 kts 294°
2026-04-23 17:32 38.15526 23.87472 31010 ft 392 kts 295°
2026-04-23 17:32 38.16910 23.84489 31304 ft 391 kts 295°
2026-04-23 17:32 38.18289 23.81514 31590 ft 390 kts 295°
2026-04-23 17:33 38.19666 23.78536 31862 ft 391 kts 295°
2026-04-23 17:33 38.21042 23.75557 32128 ft 392 kts 295°
2026-04-23 17:33 38.22423 23.72563 32371 ft 393 kts 295°
2026-04-23 17:33 38.23806 23.69560 32599 ft 395 kts 295°
2026-04-23 17:34 38.25193 23.66545 32868 ft 395 kts 295°
2026-04-23 17:34 38.26583 23.63523 33136 ft 396 kts 296°
2026-04-23 17:34 38.29345 23.57504 33676 ft 397 kts 296°
2026-04-23 17:35 38.30734 23.54468 33949 ft 397 kts 296°
2026-04-23 17:35 38.33519 23.48375 34422 ft 398 kts 296°
2026-04-23 17:35 38.34912 23.45323 34645 ft 399 kts 296°
2026-04-23 17:36 38.36303 23.42273 34874 ft 399 kts 296°
2026-04-23 17:36 38.37701 23.39202 34996 ft 402 kts 296°
2026-04-23 17:36 38.39091 23.36150 35137 ft 404 kts 297°
2026-04-23 17:36 38.40504 23.33052 35321 ft 405 kts 297°
2026-04-23 17:37 38.41917 23.29950 35510 ft 405 kts 297°
2026-04-23 17:37 38.43332 23.26841 35712 ft 405 kts 297°
2026-04-23 17:37 38.46159 23.20609 36026 ft 406 kts 297°
2026-04-23 17:38 38.47566 23.17502 36050 ft 404 kts 297°
2026-04-23 17:38 38.50367 23.11304 36048 ft 403 kts 297°
2026-04-23 17:39 38.53151 23.05138 36052 ft 404 kts 297°
2026-04-23 17:39 38.55955 22.98907 36051 ft 405 kts 297°
2026-04-23 17:40 38.58762 22.92661 36052 ft 405 kts 297°
2026-04-23 17:40 38.61573 22.86414 36058 ft 406 kts 297°
2026-04-23 17:41 38.64392 22.80125 36046 ft 408 kts 297°
2026-04-23 17:41 38.68599 22.70700 36039 ft 409 kts 297°
2026-04-23 17:42 38.72829 22.61187 36035 ft 410 kts 297°
2026-04-23 17:43 38.75654 22.54829 36034 ft 410 kts 297°
2026-04-23 17:43 38.78453 22.48513 36041 ft 411 kts 297°
2026-04-23 17:44 38.81272 22.42140 36046 ft 411 kts 298°
2026-04-23 17:44 38.85505 22.32549 36038 ft 412 kts 298°
2026-04-23 17:45 38.89728 22.22966 36047 ft 413 kts 298°
2026-04-23 17:46 38.93958 22.13313 36049 ft 414 kts 298°
2026-04-23 17:46 38.96782 22.06867 36046 ft 414 kts 298°
2026-04-23 17:47 38.99610 22.00403 36043 ft 415 kts 298°
2026-04-23 17:48 39.03823 21.90718 36030 ft 418 kts 298°
2026-04-23 17:48 39.06686 21.84113 36042 ft 428 kts 298°
2026-04-23 17:49 39.09616 21.77366 36034 ft 437 kts 299°
2026-04-23 17:49 39.12598 21.70489 36035 ft 441 kts 298°
2026-04-23 17:50 39.15558 21.63615 36034 ft 442 kts 298°
2026-04-23 17:50 39.20035 21.53217 36027 ft 443 kts 298°
2026-04-23 17:51 39.23020 21.46275 36030 ft 442 kts 298°
2026-04-23 17:52 39.27456 21.35899 36018 ft 442 kts 298°
2026-04-23 17:52 39.31905 21.25467 36007 ft 442 kts 298°
2026-04-23 17:53 39.36350 21.15016 36007 ft 442 kts 298°
2026-04-23 17:54 39.39287 21.08096 36001 ft 443 kts 299°
2026-04-23 17:54 39.43736 20.97583 35966 ft 445 kts 299°
2026-04-23 17:55 39.48189 20.87008 35957 ft 447 kts 299°
2026-04-23 17:56 39.51134 20.79982 35959 ft 447 kts 299°
2026-04-23 17:56 39.55602 20.69340 35954 ft 449 kts 299°
2026-04-23 17:57 39.58577 20.62217 35959 ft 450 kts 299°
2026-04-23 17:58 39.63008 20.51541 35958 ft 450 kts 299°
2026-04-23 17:58 39.65980 20.44390 35948 ft 450 kts 299°
2026-04-23 17:59 39.68953 20.37230 35950 ft 451 kts 299°
2026-04-23 17:59 39.71917 20.30054 35948 ft 451 kts 299°
2026-04-23 18:00 39.74865 20.22913 35945 ft 451 kts 299°
2026-04-23 18:00 39.77825 20.15714 35942 ft 452 kts 300°
2026-04-23 18:01 39.80787 20.08490 35929 ft 454 kts 300°
2026-04-23 18:01 39.83758 20.01235 35927 ft 455 kts 300°
2026-04-23 18:02 39.86716 19.93999 35934 ft 456 kts 300°
2026-04-23 18:02 39.89697 19.86702 35946 ft 457 kts 300°
2026-04-23 18:03 39.92677 19.79383 35948 ft 458 kts 300°
2026-04-23 18:03 39.95647 19.72039 35953 ft 458 kts 300°
2026-04-23 18:04 39.98620 19.64676 35967 ft 459 kts 301°
2026-04-23 18:04 40.01582 19.57352 35977 ft 460 kts 300°
2026-04-23 18:05 40.04558 19.49968 35987 ft 460 kts 301°
2026-04-23 18:05 40.07528 19.42571 35984 ft 460 kts 301°
2026-04-23 18:06 40.10495 19.35152 35995 ft 461 kts 300°
2026-04-23 18:06 40.13437 19.27775 35998 ft 461 kts 300°
2026-04-23 18:07 40.16405 19.20324 35997 ft 463 kts 301°
2026-04-23 18:07 40.19389 19.12849 35999 ft 464 kts 300°
2026-04-23 18:08 40.21867 19.06620 36001 ft 465 kts 301°
2026-04-23 18:08 40.25600 18.98105 36012 ft 461 kts 311°
2026-04-23 18:09 40.29533 18.91475 36018 ft 461 kts 311°
2026-04-23 18:09 40.33471 18.84819 36022 ft 462 kts 311°
2026-04-23 18:10 40.37369 18.78188 36034 ft 462 kts 311°
2026-04-23 18:10 40.41290 18.71501 36030 ft 463 kts 311°
2026-04-23 18:11 40.45220 18.64805 36038 ft 463 kts 311°
2026-04-23 18:11 40.49149 18.58089 36029 ft 464 kts 311°
2026-04-23 18:12 40.53081 18.51365 36042 ft 464 kts 311°
2026-04-23 18:12 40.56991 18.44675 36043 ft 465 kts 311°
2026-04-23 18:13 40.60923 18.37907 36032 ft 465 kts 311°
2026-04-23 18:13 40.64849 18.31132 36041 ft 466 kts 311°
2026-04-23 18:14 40.68779 18.24345 36064 ft 466 kts 311°
2026-04-23 18:14 40.72680 18.17602 36066 ft 466 kts 311°
2026-04-23 18:15 40.76608 18.10796 36047 ft 466 kts 311°
2026-04-23 18:15 40.80531 18.03976 36055 ft 466 kts 311°
2026-04-23 18:16 40.84453 17.97149 36070 ft 466 kts 311°
2026-04-23 18:16 40.88342 17.90356 36069 ft 466 kts 311°
2026-04-23 18:17 40.94195 17.80083 36076 ft 466 kts 311°
2026-04-23 18:17 40.98098 17.73231 36051 ft 467 kts 311°
2026-04-23 18:18 41.02005 17.66365 36066 ft 467 kts 311°
2026-04-23 18:18 41.05881 17.59536 36058 ft 467 kts 311°
2026-04-23 18:19 41.09786 17.52648 36069 ft 468 kts 311°
2026-04-23 18:19 41.13688 17.45723 36081 ft 468 kts 311°
2026-04-23 18:20 41.17579 17.38798 36070 ft 468 kts 311°
2026-04-23 18:20 41.21446 17.31912 36087 ft 468 kts 311°
2026-04-23 18:21 41.25337 17.24982 36088 ft 468 kts 311°
2026-04-23 18:21 41.29224 17.18048 36092 ft 468 kts 311°
2026-04-23 18:22 41.33107 17.11096 36079 ft 468 kts 311°
2026-04-23 18:22 41.36979 17.04136 36072 ft 468 kts 311°
2026-04-23 18:23 41.42760 16.93724 36096 ft 468 kts 311°
2026-04-23 18:24 41.48553 16.83265 36101 ft 467 kts 311°
2026-04-23 18:25 41.54333 16.72786 36108 ft 467 kts 310°
2026-04-23 18:25 41.58153 16.65838 36095 ft 467 kts 310°
2026-04-23 18:26 41.61987 16.58840 36108 ft 467 kts 310°
2026-04-23 18:26 41.65820 16.51838 36113 ft 466 kts 310°
2026-04-23 18:27 41.69653 16.44827 36122 ft 467 kts 310°
2026-04-23 18:27 41.73456 16.37860 36123 ft 467 kts 310°
2026-04-23 18:28 41.77272 16.30836 36122 ft 467 kts 310°
2026-04-23 18:28 41.81086 16.23802 36124 ft 467 kts 310°
2026-04-23 18:29 41.84903 16.16756 36138 ft 466 kts 310°
2026-04-23 18:29 41.88706 16.09711 36127 ft 466 kts 310°
2026-04-23 18:30 41.92319 16.02547 36136 ft 469 kts 304°
2026-04-23 18:30 41.95603 15.94968 36129 ft 469 kts 304°
2026-04-23 18:31 41.98889 15.87401 36136 ft 469 kts 304°
2026-04-23 18:31 42.02171 15.79823 36144 ft 469 kts 304°
2026-04-23 18:32 42.05448 15.72232 36151 ft 469 kts 304°
2026-04-23 18:32 42.08691 15.64686 36155 ft 469 kts 304°
2026-04-23 18:33 42.11953 15.57080 36147 ft 469 kts 304°
2026-04-23 18:33 42.15208 15.49474 36153 ft 469 kts 304°
2026-04-23 18:34 42.18459 15.41855 36143 ft 469 kts 304°
2026-04-23 18:34 42.21682 15.34280 36156 ft 469 kts 304°
2026-04-23 18:35 42.24924 15.26651 36135 ft 469 kts 303°
2026-04-23 18:35 42.28161 15.19026 36152 ft 468 kts 303°
2026-04-23 18:36 42.31388 15.11386 36169 ft 468 kts 303°
2026-04-23 18:36 42.34578 15.03796 36171 ft 467 kts 303°
2026-04-23 18:37 42.37789 14.96156 36171 ft 467 kts 303°
2026-04-23 18:37 42.40999 14.88513 36168 ft 467 kts 303°
2026-04-23 18:38 42.44198 14.80870 36175 ft 466 kts 303°
2026-04-23 18:38 42.47385 14.73233 36176 ft 466 kts 303°
2026-04-23 18:39 42.50538 14.65646 36175 ft 465 kts 303°
2026-04-23 18:39 42.53706 14.58001 36182 ft 465 kts 303°
2026-04-23 18:40 42.56868 14.50360 36181 ft 464 kts 303°
2026-04-23 18:40 42.60015 14.42716 36182 ft 464 kts 303°
2026-04-23 18:41 42.63138 14.35133 36181 ft 463 kts 303°
2026-04-23 18:41 42.66280 14.27490 36178 ft 463 kts 303°
2026-04-23 18:42 42.69414 14.19844 36162 ft 463 kts 302°
2026-04-23 18:42 42.72538 14.12197 36172 ft 462 kts 302°
2026-04-23 18:43 42.75635 14.04594 36186 ft 462 kts 302°
2026-04-23 18:43 42.78742 13.96942 36193 ft 462 kts 302°
2026-04-23 18:44 42.81846 13.89293 36200 ft 461 kts 302°
2026-04-23 18:44 42.84938 13.81641 36180 ft 461 kts 302°
2026-04-23 18:45 42.87996 13.74032 36182 ft 461 kts 302°
2026-04-23 18:45 42.91074 13.66374 36184 ft 461 kts 302°
2026-04-23 18:46 42.94152 13.58708 36192 ft 461 kts 302°
2026-04-23 18:46 42.97228 13.51025 36194 ft 461 kts 302°
2026-04-23 18:47 43.00271 13.43390 36183 ft 461 kts 302°
2026-04-23 18:47 43.03318 13.35689 36189 ft 461 kts 302°
2026-04-23 18:48 43.06370 13.27988 36196 ft 460 kts 302°
2026-04-23 18:48 43.09423 13.20300 36198 ft 460 kts 302°
2026-04-23 18:49 43.12459 13.12600 36181 ft 460 kts 302°
2026-04-23 18:49 43.15467 13.04946 36177 ft 459 kts 302°
2026-04-23 18:50 43.17982 12.98538 36182 ft 460 kts 302°
2026-04-23 18:50 43.21513 12.89516 36177 ft 459 kts 302°
2026-04-23 18:51 43.24530 12.81796 36172 ft 460 kts 302°
2026-04-23 18:51 43.27522 12.74119 36154 ft 459 kts 301°
2026-04-23 18:52 43.30525 12.66382 36176 ft 459 kts 301°
2026-04-23 18:52 43.33521 12.58639 36181 ft 459 kts 301°
2026-04-23 18:53 43.36511 12.50898 36195 ft 459 kts 301°
2026-04-23 18:53 43.39492 12.43149 36204 ft 459 kts 301°
2026-04-23 18:54 43.42470 12.35389 36189 ft 458 kts 301°
2026-04-23 18:54 43.45420 12.27689 36190 ft 458 kts 301°
2026-04-23 18:55 43.48385 12.19916 36192 ft 458 kts 301°
2026-04-23 18:55 43.51343 12.12138 36199 ft 458 kts 301°
2026-04-23 18:56 43.53800 12.05672 36206 ft 458 kts 301°
2026-04-23 18:56 43.57231 11.96628 36185 ft 458 kts 301°
2026-04-23 18:57 43.60177 11.88831 36186 ft 458 kts 301°
2026-04-23 18:57 43.63115 11.81017 36184 ft 459 kts 301°
2026-04-23 18:58 43.66043 11.73199 36178 ft 459 kts 301°
2026-04-23 18:58 43.68982 11.65359 36167 ft 459 kts 301°
2026-04-23 18:59 43.71927 11.57513 36169 ft 460 kts 301°
2026-04-23 18:59 43.74844 11.49697 36174 ft 461 kts 301°
2026-04-23 19:00 43.77767 11.41813 36175 ft 461 kts 300°
2026-04-23 19:00 43.80683 11.33908 36181 ft 461 kts 300°
2026-04-23 19:01 43.83599 11.26000 36173 ft 461 kts 300°
2026-04-23 19:01 43.86516 11.18078 36128 ft 462 kts 300°
2026-04-23 19:02 43.88934 11.11473 36134 ft 462 kts 300°
2026-04-23 19:02 43.92322 11.02245 36157 ft 462 kts 300°
2026-04-23 19:03 43.95238 10.94295 36182 ft 462 kts 300°
2026-04-23 19:03 43.98134 10.86332 36210 ft 462 kts 300°
2026-04-23 19:04 44.01025 10.78370 36233 ft 462 kts 300°
2026-04-23 19:04 44.03893 10.70441 36258 ft 462 kts 300°
2026-04-23 19:05 44.06773 10.62452 36255 ft 462 kts 300°
2026-04-23 19:05 44.09646 10.54469 36234 ft 462 kts 300°
2026-04-23 19:06 44.12516 10.46469 36238 ft 462 kts 300°
2026-04-23 19:06 44.15385 10.38456 36229 ft 462 kts 300°
2026-04-23 19:07 44.18285 10.30534 36198 ft 461 kts 302°
2026-04-23 19:07 44.21416 10.22737 36187 ft 461 kts 303°
2026-04-23 19:08 44.24592 10.14985 36166 ft 461 kts 302°
2026-04-23 19:08 44.27722 10.07174 36162 ft 462 kts 302°
2026-04-23 19:09 44.30788 9.99369 36191 ft 462 kts 302°
2026-04-23 19:09 44.33874 9.91495 36183 ft 462 kts 302°
2026-04-23 19:10 44.36965 9.83613 36188 ft 463 kts 302°
2026-04-23 19:10 44.40057 9.75722 36165 ft 463 kts 301°
2026-04-23 19:11 44.43144 9.67820 36169 ft 463 kts 301°
2026-04-23 19:11 44.46320 9.60065 36168 ft 461 kts 307°
2026-04-23 19:12 44.49328 9.53841 36166 ft 461 kts 307°
2026-04-23 19:12 44.53490 9.45181 36157 ft 461 kts 306°
2026-04-23 19:13 44.57064 9.37717 36165 ft 461 kts 306°
2026-04-23 19:13 44.60616 9.30287 36181 ft 462 kts 306°
2026-04-23 19:14 44.64190 9.22799 36169 ft 462 kts 307°
2026-04-23 19:14 44.67765 9.15296 36169 ft 462 kts 307°
2026-04-23 19:15 44.71334 9.07788 36158 ft 462 kts 306°
2026-04-23 19:15 44.74899 9.00256 36163 ft 463 kts 306°
2026-04-23 19:16 44.78430 8.92755 36165 ft 463 kts 306°
2026-04-23 19:16 44.81990 8.85194 36161 ft 463 kts 306°
2026-04-23 19:17 44.87321 8.73836 36146 ft 463 kts 305°
2026-04-23 19:17 44.90866 8.66237 36144 ft 464 kts 306°
2026-04-23 19:18 44.94394 8.58686 36146 ft 464 kts 306°
2026-04-23 19:18 44.97943 8.51071 36152 ft 465 kts 305°
2026-04-23 19:19 45.03254 8.39605 36145 ft 465 kts 305°
2026-04-23 19:20 45.08537 8.28158 36148 ft 465 kts 305°
2026-04-23 19:20 45.12503 8.20986 36147 ft 462 kts 319°
2026-04-23 19:21 45.19683 8.11908 36151 ft 462 kts 320°
2026-04-23 19:22 45.24463 8.05822 36140 ft 462 kts 320°
2026-04-23 19:22 45.31606 7.96702 36140 ft 463 kts 320°
2026-04-23 19:23 45.36393 7.90577 36145 ft 463 kts 320°
2026-04-23 19:24 45.43576 7.81371 36151 ft 463 kts 320°
2026-04-23 19:24 45.50723 7.72170 36161 ft 464 kts 319°
2026-04-23 19:25 45.60308 7.59769 36179 ft 466 kts 320°
2026-04-23 19:26 45.67482 7.50469 36193 ft 466 kts 320°
2026-04-23 19:27 45.78522 7.33526 35995 ft 473 kts 297°
2026-04-23 19:28 45.80348 7.26112 34852 ft 481 kts 280°
2026-04-23 19:28 45.81242 7.15040 33326 ft 475 kts 276°
2026-04-23 19:29 45.81638 7.10375 32760 ft 469 kts 281°
2026-04-23 19:29 45.83422 7.02913 30567 ft 487 kts 299°
2026-04-23 19:30 45.87225 6.94746 28057 ft 496 kts 307°
2026-04-23 19:30 45.89193 6.90662 26936 ft 498 kts 306°
2026-04-23 19:30 45.93670 6.81063 24577 ft 494 kts 305°
2026-04-23 19:31 45.95575 6.76967 23667 ft 490 kts 305°
2026-04-23 19:31 45.96828 6.74286 23044 ft 487 kts 305°
2026-04-23 19:31 45.98697 6.70269 22151 ft 481 kts 305°
2026-04-23 19:31 46.00541 6.66289 21322 ft 475 kts 304°
2026-04-23 19:32 46.02362 6.62348 20532 ft 469 kts 305°
2026-04-23 19:32 46.04155 6.58458 19815 ft 463 kts 305°
2026-04-23 19:32 46.06498 6.53388 18870 ft 456 kts 305°
2026-04-23 19:32 46.07689 6.50844 18368 ft 452 kts 306°
2026-04-23 19:33 46.09435 6.47154 18066 ft 437 kts 306°
2026-04-23 19:33 46.11119 6.43617 17929 ft 419 kts 306°
2026-04-23 19:33 46.14266 6.36988 17647 ft 389 kts 306°
2026-04-23 19:34 46.15760 6.33821 17514 ft 375 kts 306°
2026-04-23 19:34 46.17155 6.30710 17378 ft 363 kts 298°
2026-04-23 19:34 46.17659 6.23834 17109 ft 344 kts 253°
2026-04-23 19:35 46.16621 6.20813 16703 ft 333 kts 231°
2026-04-23 19:35 46.15063 6.18388 16070 ft 327 kts 225°
2026-04-23 19:35 46.13475 6.16058 15441 ft 325 kts 224°
2026-04-23 19:35 46.11915 6.13778 14847 ft 322 kts 224°
2026-04-23 19:36 46.10348 6.11485 14263 ft 320 kts 225°
2026-04-23 19:36 46.08797 6.09206 13650 ft 317 kts 224°
2026-04-23 19:36 46.07250 6.06956 13031 ft 314 kts 224°
2026-04-23 19:36 46.05715 6.04741 12437 ft 310 kts 224°
2026-04-23 19:37 46.04197 6.02560 11844 ft 307 kts 224°
2026-04-23 19:37 46.02694 6.00399 11344 ft 303 kts 224°
2026-04-23 19:37 46.01207 5.98258 11203 ft 303 kts 224°
2026-04-23 19:37 45.99713 5.96113 11058 ft 304 kts 224°
2026-04-23 19:38 45.98238 5.93996 10744 ft 291 kts 225°
2026-04-23 19:38 45.97109 5.91771 10584 ft 274 kts 247°
2026-04-23 19:38 45.96846 5.89083 9895 ft 278 kts 281°
2026-04-23 19:38 45.97660 5.86593 9127 ft 280 kts 312°
2026-04-23 19:39 45.99031 5.84596 8368 ft 282 kts 316°
2026-04-23 19:39 46.00449 5.82670 7817 ft 275 kts 325°
2026-04-23 19:39 46.02144 5.81699 7494 ft 258 kts 355°
2026-04-23 19:39 46.03884 5.82140 6816 ft 257 kts 30°
2026-04-23 19:40 46.05220 5.83771 6309 ft 249 kts 46°
2026-04-23 19:40 46.06409 5.85509 5948 ft 238 kts 46°
2026-04-23 19:40 46.07533 5.87141 5636 ft 228 kts 46°
2026-04-23 19:40 46.08639 5.88748 5340 ft 226 kts 46°
2026-04-23 19:41 46.09729 5.90334 5038 ft 217 kts 45°
2026-04-23 19:41 46.10764 5.91839 4759 ft 207 kts 45°
2026-04-23 19:41 46.11757 5.93285 4485 ft 200 kts 45°
2026-04-23 19:41 46.12704 5.94665 4244 ft 187 kts 46°
2026-04-23 19:42 46.13588 5.95954 3977 ft 175 kts 45°
2026-04-23 19:42 46.14423 5.97173 3730 ft 167 kts 45°
2026-04-23 19:42 46.15206 5.98313 3536 ft 156 kts 45°
2026-04-23 19:42 46.15941 5.99384 3312 ft 146 kts 44°
2026-04-23 19:43 46.16649 6.00414 3146 ft 145 kts 44°
2026-04-23 19:43 46.17353 6.01448 2985 ft 143 kts 44°
2026-04-23 19:43 46.18058 6.02481 2783 ft 145 kts 44°
2026-04-23 19:43 46.18764 6.03513 2571 ft 144 kts 44°
2026-04-23 19:44 46.19452 6.04522 2345 ft 139 kts 44°
2026-04-23 19:44 46.20128 6.05507 2176 ft 138 kts 44°
2026-04-23 19:44 46.20805 6.06496 1980 ft 139 kts 44°
2026-04-23 19:44 46.21474 6.07475 1833 ft 139 kts 44°
2026-04-23 19:45 46.22153 6.08470 1617 ft 138 kts 43°
2026-04-23 19:45 46.22817 6.09451 1458 ft 136 kts 43°
2026-04-23 19:45 46.23434 6.10348 1401 ft 104 kts 45°
2026-04-23 19:45 46.23822 6.10920 1379 ft 55 kts 46°
2026-04-23 19:46 46.24041 6.11242 1375 ft 36 kts 45°
2026-04-23 19:46 46.24206 6.11482 1375 ft 28 kts 46°
2026-04-23 19:46 46.24308 6.11709 1371 ft 27 kts 67°
2026-04-23 19:46 46.24339 6.11906 1365 ft 11 kts 100°
2026-04-23 19:47 46.24277 6.11919 1362 ft 12 kts 221°
2026-04-23 19:47 46.24224 6.11840 1362 ft 10 kts 225°
2026-04-23 19:47 46.24181 6.11779 1364 ft 7 kts 225°
2026-04-23 19:47 46.24132 6.11707 1366 ft 14 kts 225°
2026-04-23 19:48 46.24052 6.11588 1370 ft 18 kts 225°
2026-04-23 19:48 46.23974 6.11475 1373 ft 14 kts 225°
2026-04-23 19:48 46.23912 6.11383 1374 ft 15 kts 225°
2026-04-23 19:48 46.23815 6.11243 1376 ft 22 kts 225°
2026-04-23 19:49 46.23709 6.11087 1385 ft 20 kts 226°
2026-04-23 19:49 46.23616 6.10950 1387 ft 19 kts 225°
2026-04-23 19:49 46.23518 6.10806 1389 ft 20 kts 224°
2026-04-23 19:49 46.23421 6.10662 1401 ft 19 kts 226°
2026-04-23 19:50 46.23337 6.10551 1398 ft 15 kts 225°
2026-04-23 19:50 46.23278 6.10530 1401 ft 8 kts 146°
2026-04-23 19:50 46.23216 6.10617 1398 ft 15 kts 135°
2026-04-23 19:50 46.23150 6.10637 1393 ft 12 kts 223°
2026-04-23 19:51 46.23076 6.10528 1396 ft 16 kts 225°
2026-04-23 19:51 46.23021 6.10453 1399 ft 5 kts 201°
2026-04-23 19:51 46.22997 6.10468 1393 ft 4 kts 141°
2026-04-23 19:51 46.22981 6.10491 1395 ft 3 kts 136°
2026-04-23 19:52 46.22977 6.10497 1396 ft 0 kts 135°